Location: City of Moscow
(46.7306°N, 116.9989°W)
Time: 18:16:36
(UTC+00:00)

BREEZE M DEB (TANK) - Pass Details

Date: 11 December 2025
Orbit: 292 x 11212 km, 49.5° (Epoch: 15 January)

Event Time Altitude Azimuth Distance (km) Brightness Sun altitude
Rises 23:41:40 0° 281° (W) 6,242 8.4 1.7°
Reaches altitude 10° 23:48:22 10° 259° (W) 6,770 9.2 0.8°
Drops below altitude 10° 00:15:30 10° 213° (SSW) 11,589 10.2 -3.1°
Enters shadow 02:44:36 -48° 98° (E) 12,240 9.0 -27.2°
Exits shadow 03:05:02 -44° 19° (NNE) 9,306 8.6 -30.7°
Maximum altitude 14:12:27 66° 152° (SSE) 470 2.1 -11.5°
